Regional Weather Roundup
Issued by NWS Grand Forks, ND

Home | Current Version | Previous Version | Graphics & Text | Print | Product List | Glossary On
Versions: 1 2 3 4 5 6 7 8 9 10 11 12 13 14 15 16 17 18 19 20 21 22 23 24 25 26 27 28 29 30 31 32 33 34 35 36 37 38 39 40 41 42 43 44 45 46 47 48 49 50
000
ASUS43 KFGF 301210
RWRFGF
PRAIRIE TO PINES  WEATHER ROUNDUP
NATIONAL WEATHER SERVICE EASTERN NORTH DAKOTA/GRAND FORKS ND
700 AM CDT WED JUL 30 2014

 **SATELLITE DATA USED TO AUGMENT SKY COVER AT AUTOMATED STATIONS**
 *****  WEATHER ACROSS EASTERN NORTH DAKOTA  *****

CITY           SKY/WX    TMP DP  RH WIND       PRES   REMARKS
GRAND FORKS    PTCLDY    55  53  93 W3        30.12S
6HR MIN TEMP:  53; 6HR MAX TEMP:  57;

GRAND FRKS AFB CLEAR     53  53 100 W1        30.13S
GRAND FRKS NWS   N/A     55 N/A N/A MISG        N/A
DEVILS LAKE    CLEAR     54  50  87 N3        30.14S
6HR MIN TEMP:  54; 6HR MAX TEMP:  59;

FARGO          CLEAR     56  51  84 CALM      30.13S
WAHPETON ARPT  SUNNY     52  48  87 CALM      30.14R
$$

 ***** WEATHER ACROSS CENTRAL AND WESTERN NORTH DAKOTA  *****

CITY           SKY/WX    TMP DP  RH WIND       PRES   REMARKS
BISMARCK       CLEAR     54  25  32 CALM      30.17S
6HR MIN TEMP:  53; 6HR MAX TEMP:  63;

MINOT          CLEAR     57  54  89 CALM      30.16S
6HR MIN TEMP:  57; 6HR MAX TEMP:  63;

JAMESTOWN      CLEAR     52  51  97 W3        30.16S FOG
6HR MIN TEMP:  50; 6HR MAX TEMP:  59;

MINOT AFB      CLEAR     56  56 100 NW2       30.15F
GARRISON         N/A     54  54 100 N3        30.17S
WILLISTON      CLEAR     54  52  93 NE6       30.18S
6HR MIN TEMP:  54; 6HR MAX TEMP:  62;

DICKINSON      FOG       49  47  93 W5        30.17S VSB 1/4
6HR MIN TEMP:  49; 6HR MAX TEMP:  58;

HETTINGER      CLEAR     47  45  93 CALM      30.17S FOG
6HR MIN TEMP:  45; 6HR MAX TEMP:  59;

$$

 *****  OTHER AIRPORT OBSERVATIONS IN OUR AREA  *****

CITY           SKY/WX    TMP DP  RH WIND       PRES   REMARKS
WALHALLA         N/A     54  54 100 CALM        N/A
GRAFTON AIRPOR FAIR      54  54 100 W5        30.12S
VALLEY CITY AR FAIR      50  50 100 CALM      30.15S
CANDO          FAIR      50  50 100 NW3       30.16S
CAVALIER APRT  FAIR      55  52  88 W7        30.12S
GWINNER        SUNNY     54  54 100 W5        30.16S
SHEYENNE NWR     N/A     51  51  99 W2        29.95
ROLLA          FAIR      55  55 100 NW3       30.17S
 ***** THE ABOVE OBSERVATIONS ARE NON NWS ARE NOT QUALITY
       CONTROLLED AND MAY MIS-REPORT RAIN FOR SNOW...
$$

  *****  WEATHER ACROSS NORTHERN MINNESOTA  *****

CITY           SKY/WX    TMP DP  RH WIND       PRES   REMARKS
FLAG ISLAND    CLEAR     63  57  82 W9        30.06S
WARROAD        CLEAR     57  54  88 W5        30.09S
ROSEAU         CLEAR     57  52  82 W5        30.10S
HALLOCK        CLEAR     54  52  94 CALM      30.12S
THF RVR FALLS  CLEAR     55  54  94 NW3       30.12S
6HR MIN TEMP:  55; 6HR MAX TEMP:  61;

BAUDETTE       CLEAR     59  55  87 VRB5      30.09R
6HR MIN TEMP:  57; 6HR MAX TEMP:  61;

WASKISH        MOCLDY    63  57  82 NW5       30.09S
CROOKSTON      CLEAR     54  52  94 CALM      30.13S
$$
  *****  WEATHER ACROSS CENTRAL AND WEST MINNESOTA  *****

CITY           SKY/WX    TMP DP  RH WIND       PRES   REMARKS
FOSSTON        CLEAR     50  48  93 CALM      30.13S FOG
BEMIDJI        CLEAR     55  53  93 W3        30.11S
PARK RAPIDS    CLEAR     52  51  97 W3        30.12R
6HR MIN TEMP:  51; 6HR MAX TEMP:  56;

ELBOW LAKE     FAIR      56  54  93 NW5       30.14R
WADENA         CLEAR     55  54  94 CALM      30.12S
DETROIT LAKES  CLEAR     59  54  82 NW3       30.14S
MOORHEAD       CLEAR     55  55 100 CALM      30.14S
FERGUS FALLS   CLEAR     55  52  88 CALM      30.14R
MORRIS MN      CLEAR     54  52  94 NW5       30.13S FOG
STAPLES        CLEAR     54  52  94 CALM      30.12R
$$
  *****  WEATHER ELSEWHERE ACROSS MINNESOTA  *****

CITY           SKY/WX    TMP DP  RH WIND       PRES   REMARKS
DULUTH         MOSUNNY   52  50  93 CALM      30.08S
6HR MIN TEMP:  49; 6HR MAX TEMP:  57;

INTRNTL FALLS  PTSUNNY   52  51  97 CALM      30.05S
6HR MIN TEMP:  47; 6HR MAX TEMP:  53;

ELY            FOG       52  50  93 CALM      30.08S VSB<1/4
CLOQUET        SUNNY     52  48  87 CALM      30.09R FOG
WHEATON        CLEAR     54  54 100 CALM      30.16R
BRAINERD       CLEAR     54  53  97 CALM      30.10S
6HR MIN TEMP:  52; 6HR MAX TEMP:  63;

HIBBING        FOG       49  47  93 CALM      30.08S VSB 1/4
6HR MIN TEMP:  46; 6HR MAX TEMP:  54;

ALEXANDRIA     CLEAR     60  56  86 W3        30.14S
6HR MIN TEMP:  58; 6HR MAX TEMP:  62;

SAINT CLOUD    CLEAR     60  55  83 NW5       30.09S
6HR MIN TEMP:  57; 6HR MAX TEMP:  61;

MINNEAPOLIS    CLEAR     62  57  83 CALM      30.08S
6HR MIN TEMP:  60; 6HR MAX TEMP:  67;

$$

  *****  WEATHER ACROSS SOUTH DAKOTA  *****

CITY           SKY/WX    TMP DP  RH WIND       PRES   REMARKS
SIOUX FALLS    PTCLDY    53  52  96 CALM      30.16R
6HR MIN TEMP:  52; 6HR MAX TEMP:  58;

BROOKINGS      NOT AVBL
WATERTOWN      CLEAR     50  49  96 CALM      30.16S
6HR MIN TEMP:  50; 6HR MAX TEMP:  57;

HURON          CLEAR     51  50  96 CALM      30.16R FOG
6HR MIN TEMP:  48; 6HR MAX TEMP:  58;

SISSETON         N/A     52  51  97 N3        30.13S
ABERDEEN       CLEAR     50  49  96 E5        30.16R
6HR MIN TEMP:  47; 6HR MAX TEMP:  54;

MITCHELL       CLEAR     53  52  96 CALM      30.16S
PIERRE         MOCLDY    60  58  92 NE5       30.14S
6HR MIN TEMP:  59; 6HR MAX TEMP:  65; 6HR PCP:  0.03;

MOBRIDGE       MOCLDY    61  55  81 E6        30.13S
RAPID CITY     CLEAR     54  51  90 NW5       30.20S
6HR MIN TEMP:  50; 6HR MAX TEMP:  59;

$$

  *****  SOME WEATHER IN NEARBY STATES *****

CITY           SKY/WX    TMP DP  RH WIND       PRES   REMARKS
GLASGOW MT     CLEAR     57  53  86 E7        30.18S
6HR MIN TEMP:  57; 6HR MAX TEMP:  65;

GREAT FALLS MT CLEAR     65  45  48 SE9       30.17R
6HR MIN TEMP:  62; 6HR MAX TEMP:  70;

CHEYENNE WY    LGT RAIN  56  54  93 NE5       30.33S
6HR MIN TEMP:  55; 6HR MAX TEMP:  57; 6HR PCP:  0.20;

SCOTTSBLUFF NE CLOUDY    62  59  90 CALM      30.26S
6HR MIN TEMP:  62; 6HR MAX TEMP:  65; 6HR PCP: TRACE;

OMAHA NE       PTCLDY    56  54  93 N5        30.15R
6HR MIN TEMP:  54; 6HR MAX TEMP:  60;

DES MOINES IA  PTCLDY    59  54  83 CALM      30.10S
6HR MIN TEMP:  58; 6HR MAX TEMP:  63;

DAVENPORT IA   SUNNY     54  53  97 VRB3      30.06S FOG
6HR MIN TEMP:  53; 6HR MAX TEMP:  60;

CHICAGO IL     PTSUNNY   63  54  72 W7        30.02S
6HR MIN TEMP:  59; 6HR MAX TEMP:  63;

EAU CLAIRE WI  SUNNY     54  54 100 NE3       30.07S
6HR MIN TEMP:  51; 6HR MAX TEMP:  59;

LA CROSSE WI   NOT AVBL
$$

  *****  SOME NATIONAL WEATHER *****

CITY           SKY/WX    TMP DP  RH WIND       PRES   REMARKS
LA GUARDIA NY  MOSUNNY   68  53  58 N5        30.02R
6HR MIN TEMP:  65; 6HR MAX TEMP:  69;

RALEIGH NC     PTSUNNY   66  60  81 NE7       30.08R
6HR MIN TEMP:  63; 6HR MAX TEMP:  68;

ATLANTA GA     MOSUNNY   63  54  72 N5        30.05R
6HR MIN TEMP:  59; 6HR MAX TEMP:  65;

NEW ORLEANS LA PTCLDY    75  62  64 E5        30.06R
6HR MIN TEMP:  74; 6HR MAX TEMP:  81;

OKLAHOMA CITY  LGT RAIN  68  64  87 S6        30.08R
6HR MIN TEMP:  68; 6HR MAX TEMP:  73; 6HR PCP:  0.07;

ALBUQUERQUE NM PTCLDY    66  60  81 W6        30.20R
6HR MIN TEMP:  65; 6HR MAX TEMP:  70; 6HR PCP: TRACE;

SALT LAKE CITY MOCLDY    66  64  93 CALM      30.17R
6HR MIN TEMP:  65; 6HR MAX TEMP:  70; 6HR PCP:  0.02;

LOS ANGELES CA MOCLDY    69  62  78 CALM      29.94S
6HR MIN TEMP:  68; 6HR MAX TEMP:  70;

BOISE ID       MOCLDY    73  51  46 E6        30.09S
6HR MIN TEMP:  73; 6HR MAX TEMP:  78;



USA.gov is the U.S. government's official web portal to all federal, state and local government web resources and services.